�������l�o���
Date,Time,MP-1(��Sv/h),MP-2(��Sv/h),MP-3(��Sv/h),MP-4(��Sv/h),MP-5(��Sv/h),MP-6(��Sv/h),MP-7(��Sv/h),MP-8(��Sv/h),����,����(m/s),���J
2020/06/06,00:00,0.715,1.023,0.643,1.234,0.895,0.406,0.696,0.650,���k��,1.7,��
2020/06/06,00:10,0.712,1.026,0.644,1.235,0.894,0.406,0.694,0.650,��쓌,2.9,��
2020/06/06,00:20,0.713,1.023,0.644,1.235,0.894,0.406,0.694,0.651,��,2.0,��
2020/06/06,00:30,0.712,1.026,0.642,1.233,0.896,0.407,0.696,0.653,�k�k��,1.9,��
2020/06/06,00:40,0.713,1.025,0.644,1.234,0.896,0.406,0.696,0.651,�k�k��,3.3,��
2020/06/06,00:50,0.713,1.025,0.644,1.236,0.895,0.407,0.696,0.652,�k�k��,3.5,��
2020/06/06,01:00,0.711,1.026,0.643,1.237,0.897,0.407,0.694,0.650,�k��,3.2,��
2020/06/06,01:10,0.708,1.026,0.642,1.237,0.896,0.404,0.696,0.651,�k�k��,2.9,��
2020/06/06,01:20,0.709,1.024,0.642,1.237,0.893,0.405,0.695,0.651,���k��,2.2,��
2020/06/06,01:30,0.709,1.022,0.642,1.232,0.894,0.405,0.695,0.650,��,2.3,��
2020/06/06,01:40,0.709,1.022,0.642,1.236,0.895,0.404,0.697,0.650,���k��,2.0,��
2020/06/06,01:50,0.709,1.023,0.640,1.235,0.892,0.406,0.696,0.650,�k��,3.2,��
2020/06/06,02:00,0.708,1.023,0.641,1.234,0.894,0.403,0.695,0.650,�k�k��,3.0,��
2020/06/06,02:10,0.710,1.023,0.642,1.232,0.892,0.405,0.695,0.651,�k�k��,3.7,��
2020/06/06,02:20,0.708,1.021,0.642,1.233,0.893,0.405,0.696,0.652,�k,4.4,��
2020/06/06,02:30,0.711,1.023,0.642,1.234,0.892,0.404,0.696,0.652,�k,3.9,��
2020/06/06,02:40,0.711,1.022,0.644,1.234,0.894,0.405,0.695,0.651,�k,3.0,��
2020/06/06,02:50,0.710,1.023,0.643,1.234,0.893,0.406,0.695,0.650,�k,5.0,��
2020/06/06,03:00,0.710,1.022,0.642,1.232,0.891,0.404,0.692,0.651,�k,4.8,��
2020/06/06,03:10,0.708,1.022,0.642,1.233,0.893,0.404,0.694,0.651,�k,4.8,��
2020/06/06,03:20,0.709,1.022,0.642,1.231,0.895,0.403,0.695,0.650,�k,4.7,��
2020/06/06,03:30,0.708,1.022,0.643,1.234,0.893,0.405,0.694,0.650,�k,4.0,��
2020/06/06,03:40,0.708,1.023,0.640,1.234,0.892,0.404,0.694,0.649,�k,3.7,��
2020/06/06,03:50,0.708,1.022,0.641,1.233,0.894,0.402,0.694,0.651,�k,4.4,��
2020/06/06,04:00,0.706,1.020,0.640,1.235,0.894,0.404,0.693,0.650,�k�k��,4.6,��
2020/06/06,04:10,0.706,1.022,0.641,1.232,0.891,0.402,0.693,0.651,�k,4.5,��
2020/06/06,04:20,0.707,1.020,0.643,1.234,0.894,0.401,0.694,0.650,�k,5.7,��
2020/06/06,04:30,0.706,1.023,0.642,1.231,0.893,0.403,0.694,0.650,�k,4.6,��
2020/06/06,04:40,0.709,1.023,0.641,1.235,0.892,0.402,0.694,0.650,�k,3.6,��
2020/06/06,04:50,0.708,1.022,0.642,1.232,0.893,0.402,0.695,0.649,�k�k��,3.6,��
2020/06/06,05:00,0.709,1.020,0.642,1.234,0.895,0.402,0.693,0.650,�k,4.9,��
2020/06/06,05:10,0.708,1.022,0.642,1.234,0.894,0.400,0.693,0.650,�k,5.4,��
2020/06/06,05:20,0.708,1.023,0.641,1.233,0.890,0.402,0.694,0.650,�k,5.9,��
2020/06/06,05:30,0.709,1.021,0.641,1.234,0.891,0.403,0.694,0.649,�k,6.0,��
2020/06/06,05:40,0.710,1.022,0.643,1.233,0.894,0.402,0.694,0.650,�k,5.4,��
2020/06/06,05:50,0.708,1.020,0.641,1.234,0.893,0.403,0.694,0.648,�k,4.0,��
2020/06/06,06:00,0.708,1.021,0.642,1.230,0.891,0.403,0.694,0.651,�k,3.5,��
2020/06/06,06:10,0.708,1.022,0.641,1.232,0.892,0.402,0.693,0.651,�k,3.7,��
2020/06/06,06:20,0.707,1.020,0.641,1.232,0.890,0.402,0.691,0.650,�k,2.8,��
2020/06/06,06:30,0.707,1.020,0.641,1.235,0.892,0.401,0.693,0.649,�k,2.0,��
2020/06/06,06:40,0.707,1.021,0.641,1.232,0.891,0.401,0.692,0.650,�k�k��,2.3,��
2020/06/06,06:50,0.707,1.021,0.642,1.235,0.893,0.402,0.693,0.650,�k,2.3,��
2020/06/06,07:00,0.705,1.020,0.641,1.235,0.892,0.401,0.692,0.649,�k�k��,0.8,��
2020/06/06,07:10,0.706,1.021,0.641,1.233,0.892,0.402,0.693,0.648,�k�k��,1.9,��
2020/06/06,07:20,0.708,1.022,0.640,1.233,0.891,0.403,0.692,0.649,�k�k��,2.6,��
2020/06/06,07:30,0.703,1.019,0.641,1.233,0.891,0.402,0.692,0.647,�k,3.7,��
2020/06/06,07:40,0.706,1.020,0.642,1.232,0.890,0.399,0.691,0.649,�k�k��,3.8,��
2020/06/06,07:50,0.706,1.019,0.638,1.231,0.892,0.401,0.691,0.647,�k,3.2,��
2020/06/06,08:00,0.708,1.018,0.640,1.234,0.891,0.400,0.694,0.647,�k,2.3,��
2020/06/06,08:10,0.706,1.021,0.639,1.232,0.890,0.400,0.693,0.650,�k,2.6,��
2020/06/06,08:20,0.709,1.020,0.641,1.234,0.890,0.400,0.693,0.648,�k,2.6,��
2020/06/06,08:30,0.707,1.016,0.645,1.233,0.891,0.401,0.694,0.649,�k�k��,3.6,��
2020/06/06,08:40,0.707,1.016,0.641,1.231,0.891,0.401,0.695,0.649,�k,2.3,��
2020/06/06,08:50,0.709,1.015,0.642,1.232,0.891,0.400,0.694,0.648,�k,3.0,��
2020/06/06,09:00,0.708,1.015,0.641,1.231,0.892,0.403,0.693,0.648,�k,2.2,��
2020/06/06,09:10,0.708,1.012,0.642,1.230,0.891,0.402,0.694,0.649,�k�k��,2.5,��
2020/06/06,09:20,0.710,1.016,0.641,1.232,0.892,0.401,0.694,0.649,�k�k��,3.2,��
2020/06/06,09:30,0.707,1.014,0.642,1.233,0.893,0.402,0.694,0.649,�k�k��,3.6,��
2020/06/06,09:40,0.712,1.014,0.643,1.232,0.890,0.403,0.694,0.649,�k�k��,4.5,��
2020/06/06,09:50,0.709,1.017,0.647,1.233,0.891,0.401,0.696,0.648,�k��,4.2,��
2020/06/06,10:00,0.710,1.015,0.640,1.232,0.890,0.402,0.695,0.646,�k��,4.2,��
2020/06/06,10:10,0.710,1.017,0.641,1.235,0.893,0.401,0.696,0.650,�k��,3.6,��
2020/06/06,10:20,0.709,1.014,0.643,1.236,0.894,0.400,0.694,0.649,�k��,4.1,��
2020/06/06,10:30,0.709,1.016,0.645,1.233,0.893,0.400,0.694,0.650,�k��,3.4,��
2020/06/06,10:40,0.709,1.017,0.647,1.235,0.894,0.399,0.695,0.649,�k��,3.6,��
2020/06/06,10:50,0.710,1.018,0.648,1.233,0.894,0.403,0.696,0.649,�k�k��,3.9,��
2020/06/06,11:00,0.711,1.018,0.647,1.233,0.893,0.402,0.695,0.649,�k��,4.0,��
2020/06/06,11:10,0.712,1.020,0.647,1.234,0.895,0.402,0.695,0.649,�k��,2.9,��
2020/06/06,11:20,0.712,1.016,0.649,1.231,0.895,0.401,0.695,0.649,�k��,3.1,��
2020/06/06,11:30,0.712,1.020,0.648,1.233,0.895,0.403,0.696,0.651,�k�k��,3.3,��
2020/06/06,11:40,0.712,1.020,0.647,1.234,0.893,0.401,0.694,0.648,�k�k��,3.6,��
2020/06/06,11:50,0.709,1.020,0.647,1.234,0.897,0.403,0.695,0.650,�k�k��,4.0,��
2020/06/06,12:00,0.712,1.022,0.649,1.236,0.898,0.402,0.694,0.650,�k��,4.3,��
2020/06/06,12:10,0.712,1.021,0.647,1.233,0.897,0.402,0.695,0.649,�k��,3.6,��
2020/06/06,12:20,0.713,1.023,0.649,1.235,0.896,0.403,0.695,0.649,�k��,3.7,��
2020/06/06,12:30,0.713,1.024,0.648,1.235,0.897,0.402,0.696,0.648,�k��,3.7,��
2020/06/06,12:40,0.712,1.022,0.647,1.235,0.897,0.402,0.695,0.649,�k�k��,4.0,��
2020/06/06,12:50,0.713,1.022,0.649,1.232,0.898,0.403,0.694,0.651,�k��,3.8,��
2020/06/06,13:00,0.712,1.023,0.649,1.237,0.897,0.404,0.697,0.650,�k��,4.0,��
2020/06/06,13:10,0.710,1.021,0.648,1.234,0.898,0.403,0.696,0.649,�k��,4.1,��
2020/06/06,13:20,0.712,1.023,0.647,1.235,0.898,0.404,0.696,0.651,�k��,3.5,��
2020/06/06,13:30,0.713,1.022,0.648,1.236,0.896,0.403,0.696,0.650,���k��,3.4,��
2020/06/06,13:40,0.713,1.022,0.649,1.234,0.897,0.404,0.696,0.649,���k��,2.8,��
2020/06/06,13:50,0.713,1.019,0.645,1.237,0.897,0.403,0.696,0.649,���k��,3.2,��
2020/06/06,14:00,0.711,1.022,0.644,1.236,0.896,0.402,0.697,0.650,���k��,4.0,��
2020/06/06,14:10,0.714,1.021,0.644,1.235,0.897,0.403,0.695,0.649,���k��,3.1,��
2020/06/06,14:20,0.711,1.021,0.646,1.237,0.897,0.404,0.697,0.650,���k��,3.0,��
2020/06/06,14:30,0.714,1.025,0.644,1.238,0.894,0.402,0.694,0.650,��,3.6,��
2020/06/06,14:40,0.712,1.022,0.646,1.239,0.896,0.402,0.694,0.651,��,2.6,��
2020/06/06,14:50,0.712,1.024,0.641,1.236,0.898,0.401,0.696,0.649,���쓌,2.3,��
2020/06/06,15:00,0.714,1.024,0.643,1.236,0.897,0.402,0.695,0.650,���쓌,2.2,��
2020/06/06,15:10,0.714,1.025,0.643,1.238,0.898,0.403,0.697,0.650,���쓌,1.7,��
2020/06/06,15:20,0.712,1.025,0.644,1.237,0.897,0.402,0.697,0.650,��,1.7,��
2020/06/06,15:30,0.714,1.023,0.644,1.239,0.897,0.403,0.697,0.650,���쓌,2.3,��
2020/06/06,15:40,0.715,1.025,0.644,1.239,0.898,0.401,0.695,0.649,��,2.0,��
2020/06/06,15:50,0.712,1.025,0.643,1.241,0.898,0.403,0.694,0.650,���쓌,2.0,��
2020/06/06,16:00,0.713,1.027,0.644,1.241,0.899,0.403,0.697,0.648,���쓌,1.5,��
2020/06/06,16:10,0.713,1.028,0.643,1.240,0.896,0.404,0.696,0.649,���쓌,2.0,��
2020/06/06,16:20,0.711,1.026,0.643,1.239,0.897,0.402,0.695,0.649,���쓌,1.2,��
2020/06/06,16:30,0.712,1.028,0.643,1.237,0.898,0.402,0.696,0.649,�쓌,1.2,��
2020/06/06,16:40,0.713,1.028,0.642,1.238,0.900,0.403,0.697,0.650,�쓌,1.1,��
2020/06/06,16:50,0.711,1.027,0.644,1.240,0.901,0.404,0.695,0.650,���쓌,1.2,��
2020/06/06,17:00,0.711,1.028,0.644,1.242,0.898,0.402,0.696,0.648,�쓌,2.0,��
2020/06/06,17:10,0.712,1.030,0.644,1.242,0.899,0.402,0.694,0.651,�쓌,1.5,��
2020/06/06,17:20,0.712,1.030,0.645,1.242,0.900,0.401,0.695,0.649,��쓌,2.6,��
2020/06/06,17:30,0.713,1.030,0.643,1.242,0.899,0.403,0.696,0.651,��쓌,2.3,��
2020/06/06,17:40,0.715,1.029,0.644,1.243,0.898,0.402,0.696,0.650,�쓌,2.6,��
2020/06/06,17:50,0.714,1.028,0.645,1.241,0.896,0.402,0.697,0.651,��쓌,2.9,��
2020/06/06,18:00,0.715,1.028,0.647,1.242,0.897,0.402,0.698,0.651,��쓌,2.3,��
2020/06/06,18:10,0.712,1.029,0.643,1.244,0.899,0.405,0.696,0.651,��,2.6,��
2020/06/06,18:20,0.715,1.031,0.643,1.243,0.900,0.405,0.696,0.652,��,2.0,��
2020/06/06,18:30,0.713,1.031,0.645,1.242,0.899,0.405,0.696,0.651,��,2.6,��
2020/06/06,18:40,0.715,1.031,0.645,1.245,0.900,0.406,0.696,0.650,��,1.7,��
2020/06/06,18:50,0.713,1.030,0.645,1.242,0.901,0.404,0.697,0.654,��쐼,1.1,��
2020/06/06,19:00,0.715,1.031,0.645,1.242,0.901,0.404,0.696,0.652,��쓌,0.6,��
2020/06/06,19:10,0.713,1.031,0.645,1.242,0.901,0.406,0.697,0.651,�쓌,1.5,��
2020/06/06,19:20,0.713,1.031,0.644,1.243,0.898,0.406,0.698,0.652,�쓌,2.2,��
2020/06/06,19:30,0.715,1.031,0.645,1.241,0.900,0.405,0.697,0.651,�쓌,2.3,��
2020/06/06,19:40,0.715,1.028,0.644,1.243,0.900,0.407,0.697,0.652,���쓌,2.0,��
2020/06/06,19:50,0.713,1.028,0.645,1.243,0.900,0.405,0.697,0.652,��,2.2,��
2020/06/06,20:00,0.713,1.029,0.644,1.239,0.901,0.404,0.698,0.652,���k��,2.0,��
2020/06/06,20:10,0.715,1.030,0.644,1.242,0.900,0.404,0.696,0.652,�k��,1.4,��
2020/06/06,20:20,0.711,1.030,0.646,1.241,0.902,0.405,0.700,0.651,�k��,4.2,��
2020/06/06,20:30,0.714,1.029,0.645,1.241,0.899,0.404,0.696,0.650,�k�k��,5.3,��
2020/06/06,20:40,0.713,1.027,0.643,1.243,0.898,0.405,0.695,0.652,�k�k��,4.6,��
2020/06/06,20:50,0.713,1.029,0.642,1.242,0.901,0.403,0.698,0.651,�k,4.8,��
2020/06/06,21:00,0.712,1.028,0.644,1.240,0.900,0.404,0.697,0.652,�k,4.5,��
2020/06/06,21:10,0.713,1.029,0.645,1.242,0.898,0.404,0.697,0.651,�k,4.0,��
2020/06/06,21:20,0.712,1.030,0.645,1.244,0.898,0.402,0.697,0.652,�k,4.0,��
2020/06/06,21:30,0.712,1.029,0.642,1.241,0.898,0.403,0.697,0.652,�k,4.9,��
2020/06/06,21:40,0.711,1.030,0.642,1.241,0.897,0.402,0.695,0.651,�k,4.0,��
2020/06/06,21:50,0.711,1.028,0.643,1.241,0.900,0.403,0.694,0.651,�k�k��,3.0,��
2020/06/06,22:00,0.711,1.029,0.644,1.243,0.899,0.401,0.695,0.650,�k,3.8,��
2020/06/06,22:10,0.710,1.028,0.644,1.240,0.897,0.401,0.696,0.653,�k,3.4,��
2020/06/06,22:20,0.713,1.028,0.643,1.241,0.899,0.403,0.695,0.652,�k,4.4,��
2020/06/06,22:30,0.710,1.028,0.643,1.242,0.898,0.402,0.695,0.652,�k,3.3,��
2020/06/06,22:40,0.711,1.029,0.645,1.242,0.899,0.402,0.694,0.652,�k,5.1,��
2020/06/06,22:50,0.710,1.029,0.642,1.241,0.898,0.402,0.695,0.651,�k,4.8,��
2020/06/06,23:00,0.712,1.028,0.645,1.242,0.898,0.401,0.695,0.652,�k,4.3,��
2020/06/06,23:10,0.712,1.028,0.644,1.239,0.898,0.401,0.695,0.652,�k,3.9,��
2020/06/06,23:20,0.710,1.030,0.642,1.240,0.898,0.401,0.694,0.651,�k,2.8,��
2020/06/06,23:30,0.711,1.027,0.643,1.239,0.898,0.401,0.695,0.651,�k,2.8,��
2020/06/06,23:40,0.710,1.028,0.643,1.239,0.898,0.403,0.694,0.653,�k�k��,3.7,��
2020/06/06,23:50,0.711,1.029,0.642,1.241,0.898,0.402,0.695,0.651,�k,4.0,��
